Weather History for Georgetown, SC

Change the Weather History Date:

Friday, October 26, 2012

  Actual Average Record
Temperature  
Mean Temperature 70 °F -  
Max Temperature 77 °F 75 °F 82 °F (2010)
Min Temperature 62 °F 53 °F 33 °F (2013)
Cooling Degree Days 4    
Growing Degree Days 20 (Base 50)    
Moisture  
Dew Point 64 °F    
Average Humidity 85    
Maximum Humidity 100    
Minimum Humidity 65    
Precipitation  
Precipitation 0.00 in - - ()
Sea Level Pressure  
Sea Level Pressure 29.92 in    
Wind  
Wind Speed 9 mph (NNE)    
Max Wind Speed 18 mph    
Max Gust Speed 25 mph    
Visibility 10 miles    
Events      
Averages and records for this station are not official NWS values.
T = Trace of Precipitation, MM = Missing Value Source: NWS Daily Summary

Daily Weather History Graph

Daily Weather History Graph

Search for Another Location

Airport:

Trip Planner

Search our weather history database for the weather conditions in past years. The results will help you decide how hot, cold, wet, or windy it might be!

Date:

Astronomy

Oct. 26, 2012 Rise Set
Actual Time 7:31 AM EDT 6:30 PM EDT
Civil Twilight 7:05 AM EDT 6:56 PM EDT
Nautical Twilight 6:36 AM EDT 7:25 PM EDT
Astronomical Twilight 6:07 AM EDT 7:54 PM EDT
Moon 4:39 PM EDT (10/26) 4:33 AM EDT (10/26)
Length of Visible Light 11h 50m
Length of Day
10h 59m
Waxing Gibbous, 91% of the Moon is Illuminated
Oct 26
Waxing Gibbous
Oct 29
Full
Nov 6
Last Quarter
Nov 13
New
Nov 20
First Quarter

Hourly Weather History & Observations

Time (EDT) Temp. Dew Point Humidity Pressure Visibility Wind Dir Wind Speed Gust Speed Precip Events Conditions
12:15 AM 68.0 °F 68.0 °F 100% 30.04 in 10.0 mi NNE 5.8 mph - N/A   Clear
12:35 AM 66.2 °F 66.2 °F 100% 30.04 in 10.0 mi NNE 5.8 mph - N/A   Clear
12:55 AM 66.2 °F 66.2 °F 100% 30.03 in 10.0 mi NNE 5.8 mph - N/A   Clear
1:35 AM 64.4 °F 64.4 °F 100% 30.01 in 10.0 mi NNE 6.9 mph - N/A   Scattered Clouds
1:55 AM 64.4 °F 64.4 °F 100% 30.01 in 10.0 mi NNE 5.8 mph - N/A   Clear
2:15 AM 66.2 °F 66.2 °F 100% 30.00 in 10.0 mi NNE 5.8 mph - N/A   Clear
2:35 AM 66.2 °F 66.2 °F 100% 30.00 in 10.0 mi NNE 6.9 mph - N/A   Clear
2:55 AM 66.2 °F 66.2 °F 100% 29.99 in 10.0 mi NNE 8.1 mph - N/A   Clear
3:15 AM 64.4 °F 64.4 °F 100% 29.98 in 10.0 mi NNE 3.5 mph - N/A   Clear
3:35 AM 64.4 °F 64.4 °F 100% 29.99 in 10.0 mi Calm Calm - N/A   Clear
3:55 AM 64.4 °F 64.4 °F 100% 29.98 in 10.0 mi NNE 5.8 mph - N/A   Clear
4:35 AM 62.6 °F 62.6 °F 100% 29.98 in 10.0 mi NNE 5.8 mph - N/A   Clear
4:55 AM 62.6 °F 62.6 °F 100% 29.98 in 10.0 mi NNE 6.9 mph - N/A   Clear
5:15 AM 62.6 °F 62.6 °F 100% 29.98 in 10.0 mi NNE 6.9 mph - N/A   Clear
5:35 AM 62.6 °F 62.6 °F 100% 29.98 in 10.0 mi NNE 6.9 mph - N/A   Clear
5:55 AM 62.6 °F 62.6 °F 100% 29.98 in 10.0 mi NNE 5.8 mph - N/A   Clear
6:35 AM 62.6 °F 62.6 °F 100% 29.98 in 10.0 mi NNE 6.9 mph - N/A   Clear
6:55 AM 62.6 °F 62.6 °F 100% 29.98 in 10.0 mi NNE 9.2 mph - N/A   Clear
7:15 AM 62.6 °F 62.6 °F 100% 29.98 in 10.0 mi NNE 6.9 mph - N/A   Clear
7:35 AM 62.6 °F 62.6 °F 100% 29.98 in 10.0 mi NNE 8.1 mph - N/A   Clear
7:55 AM 62.6 °F 62.6 °F 100% 29.98 in 10.0 mi NNE 11.5 mph - N/A   Clear
8:15 AM 64.4 °F 64.4 °F 100% 29.98 in 10.0 mi NNE 10.4 mph - N/A   Clear
8:35 AM 64.4 °F 64.4 °F 100% 29.98 in 10.0 mi NNE 10.4 mph - N/A   Clear
8:55 AM 64.4 °F 64.4 °F 100% 29.99 in 10.0 mi NNE 11.5 mph 16.1 mph N/A   Clear
9:15 AM 66.2 °F 62.6 °F 88% 29.99 in 10.0 mi NNE 11.5 mph 18.4 mph N/A   Clear
9:35 AM 68.0 °F 62.6 °F 83% 29.99 in 10.0 mi NNE 12.7 mph - N/A   Clear
9:55 AM 68.0 °F 60.8 °F 78% 29.99 in 10.0 mi NNE 17.3 mph - N/A   Clear
10:15 AM 69.8 °F 60.8 °F 73% 29.99 in 10.0 mi NNE 12.7 mph 19.6 mph N/A   Clear
10:35 AM 71.6 °F 60.8 °F 69% 29.98 in 10.0 mi NNE 11.5 mph - N/A   Clear
11:15 AM 73.4 °F 60.8 °F 65% 29.97 in 10.0 mi NNE 11.5 mph - N/A   Clear
11:35 AM 73.4 °F 62.6 °F 69% 29.97 in 10.0 mi NNE 13.8 mph 21.9 mph N/A   Clear
11:55 AM 73.4 °F 62.6 °F 69% 29.96 in 10.0 mi NNE 16.1 mph 20.7 mph N/A   Clear
12:15 PM 75.2 °F 64.4 °F 69% 29.95 in 10.0 mi NNE 15.0 mph 19.6 mph N/A   Clear
12:35 PM 75.2 °F 64.4 °F 69% 29.95 in 10.0 mi NE 17.3 mph 23.0 mph N/A   Clear
12:55 PM 75.2 °F 64.4 °F 69% 29.94 in 10.0 mi NE 15.0 mph 20.7 mph N/A   Clear
1:15 PM 77.0 °F 64.4 °F 65% 29.93 in 10.0 mi North 12.7 mph 25.3 mph N/A   Clear
1:35 PM 77.0 °F 64.4 °F 65% 29.91 in 10.0 mi NNE 13.8 mph 19.6 mph N/A   Clear
1:55 PM 77.0 °F 64.4 °F 65% 29.90 in 10.0 mi NNE 16.1 mph 23.0 mph N/A   Clear
2:15 PM 77.0 °F 64.4 °F 65% 29.90 in 10.0 mi NE 12.7 mph 23.0 mph N/A   Clear
2:35 PM 75.2 °F 64.4 °F 69% 29.89 in 10.0 mi NNE 16.1 mph 21.9 mph N/A   Scattered Clouds
2:55 PM 75.2 °F 64.4 °F 69% 29.88 in 10.0 mi NNE 18.4 mph 23.0 mph N/A   Scattered Clouds
3:15 PM 75.2 °F 64.4 °F 69% 29.88 in 10.0 mi NNE 16.1 mph 19.6 mph N/A   Scattered Clouds
3:35 PM 73.4 °F 64.4 °F 73% 29.88 in 10.0 mi NNE 12.7 mph 19.6 mph N/A   Clear
3:55 PM 73.4 °F 64.4 °F 73% 29.87 in 10.0 mi North 13.8 mph 19.6 mph N/A   Clear
4:15 PM 73.4 °F 64.4 °F 73% 29.86 in 10.0 mi North 11.5 mph 20.7 mph N/A   Clear
4:35 PM 71.6 °F 64.4 °F 78% 29.86 in 10.0 mi North 17.3 mph - N/A   Clear
4:55 PM 71.6 °F 64.4 °F 78% 29.86 in 10.0 mi North 11.5 mph - N/A   Clear
5:15 PM 71.6 °F 64.4 °F 78% 29.86 in 10.0 mi North 12.7 mph 18.4 mph N/A   Clear
5:35 PM 71.6 °F 64.4 °F 78% 29.85 in 10.0 mi North 12.7 mph 17.3 mph N/A   Clear
6:15 PM 69.8 °F 64.4 °F 83% 29.85 in 10.0 mi North 10.4 mph 17.3 mph N/A   Clear
6:35 PM 69.8 °F 64.4 °F 83% 29.85 in 10.0 mi North 12.7 mph 18.4 mph N/A   Clear
6:55 PM 69.8 °F 64.4 °F 83% 29.85 in 10.0 mi North 11.5 mph 18.4 mph N/A   Mostly Cloudy
7:15 PM 69.8 °F 64.4 °F 83% 29.85 in 10.0 mi North 15.0 mph 19.6 mph N/A   Scattered Clouds
7:35 PM 69.8 °F 64.4 °F 83% 29.85 in 10.0 mi North 11.5 mph 20.7 mph N/A   Mostly Cloudy
7:55 PM 69.8 °F 64.4 °F 83% 29.85 in 10.0 mi North 13.8 mph 18.4 mph N/A   Mostly Cloudy
8:15 PM 69.8 °F 64.4 °F 83% 29.84 in 10.0 mi North 11.5 mph 19.6 mph N/A   Overcast
8:35 PM 69.8 °F 64.4 °F 83% 29.83 in 10.0 mi North 13.8 mph 23.0 mph N/A   Overcast
8:55 PM 69.8 °F 64.4 °F 83% 29.83 in 10.0 mi North 15.0 mph 21.9 mph N/A   Overcast
9:15 PM 69.8 °F 64.4 °F 83% 29.83 in 10.0 mi NNE 15.0 mph 24.2 mph N/A   Overcast
9:35 PM 69.8 °F 64.4 °F 83% 29.83 in 10.0 mi NNE 16.1 mph 24.2 mph N/A   Overcast
9:55 PM 68.0 °F 64.4 °F 88% 29.83 in 10.0 mi NNE 12.7 mph - N/A   Scattered Clouds
10:15 PM 68.0 °F 64.4 °F 88% 29.82 in 10.0 mi NNE 12.7 mph 20.7 mph N/A   Scattered Clouds
10:35 PM 69.8 °F 64.4 °F 83% 29.82 in 10.0 mi North 13.8 mph - N/A   Scattered Clouds
10:55 PM 69.8 °F 64.4 °F 83% 29.81 in 10.0 mi North 15.0 mph 20.7 mph N/A   Overcast
11:35 PM 68.0 °F 64.4 °F 88% 29.80 in 10.0 mi North 10.4 mph 20.7 mph N/A   Overcast
11:55 PM 68.0 °F 64.4 °F 88% 29.79 in 10.0 mi North 10.4 mph - N/A   Mostly Cloudy